Location: Unspecified
(0.0000°N, 0.0000°E)
Time: 03:43:04
(UTC+00:00)

Tianhe-1 - Pass Details

Date: 13 May 2021
Orbit: 360 x 384 km, 41.5° (Epoch: 18 May)

Event Time Altitude Azimuth Distance (km) Brightness Sun altitude
Rises 05:27:42 0° 319° (NW) 2,222 4.7 -6.8°
Reaches altitude 10° 05:29:47 10° 323° (NW) 1,370 3.7 -6.3°
Maximum altitude 05:32:50 59° 44° (NE) 430 1.7 -5.6°
Drops below altitude 10° 05:35:52 10° 125° (SE) 1,361 4.4 -4.9°
Sets 05:37:55 0° 129° (SE) 2,206 5.4 -4.4°
